TimeEST,TemperatureF,Dew PointF,Humidity,Sea Level PressureIn,VisibilityMPH,Wind Direction,Wind SpeedMPH,Gust SpeedMPH,PrecipitationIn,Events,Conditions,WindDirDegrees,DateUTC
12:00 AM,55.4,53.6,94,29.77,2.0,West,19.6,38.0,N/A,,Overcast,260,2013-11-18 05:00:00
12:20 AM,59.0,48.2,67,29.78,10.0,SW,6.9,18.4,N/A,,Overcast,220,2013-11-18 05:20:00
12:40 AM,59.0,42.8,55,29.77,10.0,SW,17.3,28.8,N/A,,Overcast,230,2013-11-18 05:40:00
1:00 AM,59.0,41.0,51,29.76,10.0,SW,18.4,27.6,N/A,,Mostly Cloudy,230,2013-11-18 06:00:00
1:20 AM,59.0,41.0,51,29.76,10.0,South,9.2,20.7,N/A,,Scattered Clouds,190,2013-11-18 06:20:00
1:40 AM,59.0,42.8,55,29.76,10.0,South,15.0,19.6,N/A,,Scattered Clouds,170,2013-11-18 06:40:00
2:01 AM,59.0,44.6,59,29.77,10.0,South,8.1,24.2,N/A,,Scattered Clouds,190,2013-11-18 07:01:00
2:21 AM,59.0,41.0,51,29.77,10.0,SW,8.1,-,N/A,,Clear,220,2013-11-18 07:21:00
2:41 AM,59.0,41.0,51,29.77,10.0,South,5.8,-,N/A,,Clear,170,2013-11-18 07:41:00
3:01 AM,59.0,41.0,51,29.77,10.0,SSW,5.8,-,N/A,,Clear,200,2013-11-18 08:01:00
3:21 AM,59.0,37.4,45,29.77,10.0,South,4.6,-,N/A,,Clear,180,2013-11-18 08:21:00
3:41 AM,59.0,37.4,45,29.79,10.0,SW,5.8,21.9,N/A,,Clear,230,2013-11-18 08:41:00
4:01 AM,59.0,37.4,45,29.78,10.0,SE,5.8,17.3,N/A,,Clear,140,2013-11-18 09:01:00
4:21 AM,57.2,37.4,48,29.79,10.0,South,6.9,-,N/A,,Clear,190,2013-11-18 09:21:00
4:41 AM,55.4,35.6,47,29.79,10.0,Calm,Calm,-,N/A,,Clear,0,2013-11-18 09:41:00
5:01 AM,57.2,35.6,44,29.80,10.0,WSW,9.2,21.9,N/A,,Clear,240,2013-11-18 10:01:00
5:21 AM,55.4,35.6,47,29.80,10.0,WSW,8.1,-,N/A,,Clear,240,2013-11-18 10:21:00
5:41 AM,55.4,35.6,47,29.80,10.0,SW,6.9,-,N/A,,Clear,230,2013-11-18 10:41:00
6:01 AM,55.4,33.8,44,29.80,10.0,WSW,10.4,-,N/A,,Clear,250,2013-11-18 11:01:00
6:21 AM,53.6,33.8,47,29.80,10.0,South,13.8,18.4,N/A,,Clear,190,2013-11-18 11:21:00
6:41 AM,53.6,33.8,47,29.80,10.0,SSW,8.1,-,N/A,,Clear,200,2013-11-18 11:41:00
7:01 AM,51.8,32.0,47,29.81,10.0,SSW,10.4,-,N/A,,Clear,200,2013-11-18 12:01:00
7:21 AM,53.6,32.0,44,29.82,10.0,WSW,16.1,23.0,N/A,,Clear,250,2013-11-18 12:21:00
7:41 AM,53.6,32.0,44,29.82,10.0,WSW,5.8,-,N/A,,Clear,250,2013-11-18 12:41:00
8:01 AM,55.4,32.0,41,29.83,10.0,West,12.7,17.3,N/A,,Clear,270,2013-11-18 13:01:00
8:21 AM,55.4,33.8,44,29.84,10.0,WSW,12.7,16.1,N/A,,Clear,250,2013-11-18 13:21:00
8:41 AM,55.4,33.8,44,29.84,10.0,West,4.6,19.6,N/A,,Clear,270,2013-11-18 13:41:00
9:01 AM,57.2,32.0,38,29.84,10.0,SW,4.6,-,N/A,,Clear,230,2013-11-18 14:01:00
9:21 AM,57.2,32.0,38,29.84,10.0,SSW,8.1,20.7,N/A,,Clear,210,2013-11-18 14:21:00
9:41 AM,59.0,32.0,36,29.85,10.0,SW,9.2,-,N/A,,Clear,220,2013-11-18 14:41:00
10:01 AM,59.0,32.0,36,29.85,10.0,WSW,13.8,31.1,N/A,,Clear,250,2013-11-18 15:01:00
10:21 AM,59.0,30.2,34,29.85,10.0,SW,11.5,24.2,N/A,,Clear,230,2013-11-18 15:21:00
10:41 AM,59.0,28.4,31,29.84,10.0,West,21.9,34.5,N/A,,Clear,260,2013-11-18 15:41:00
11:02 AM,59.0,28.4,31,29.84,10.0,West,6.9,26.5,N/A,,Clear,270,2013-11-18 16:02:00
11:22 AM,60.8,26.6,27,29.83,10.0,West,6.9,23.0,N/A,,Clear,270,2013-11-18 16:22:00
11:42 AM,60.8,26.6,27,29.82,10.0,WSW,5.8,26.5,N/A,,Clear,240,2013-11-18 16:42:00
12:02 PM,62.6,28.4,27,29.82,10.0,SW,8.1,-,N/A,,Clear,220,2013-11-18 17:02:00
12:22 PM,60.8,24.8,25,29.82,10.0,West,13.8,34.5,N/A,,Clear,270,2013-11-18 17:22:00
12:42 PM,60.8,24.8,25,29.82,10.0,West,16.1,31.1,N/A,,Clear,280,2013-11-18 17:42:00
1:02 PM,62.6,26.6,26,29.81,10.0,WSW,8.1,21.9,N/A,,Clear,240,2013-11-18 18:02:00
1:22 PM,62.6,26.6,26,29.81,10.0,WSW,15.0,27.6,N/A,,Clear,250,2013-11-18 18:22:00
1:42 PM,62.6,26.6,26,29.81,10.0,WSW,20.7,31.1,N/A,,Clear,240,2013-11-18 18:42:00
2:02 PM,60.8,26.6,27,29.81,10.0,West,15.0,31.1,N/A,,Clear,260,2013-11-18 19:02:00
2:22 PM,60.8,26.6,27,29.81,10.0,West,21.9,31.1,N/A,,Clear,280,2013-11-18 19:22:00
2:42 PM,60.8,26.6,27,29.81,10.0,WSW,12.7,23.0,N/A,,Clear,240,2013-11-18 19:42:00
3:02 PM,60.8,28.4,29,29.82,10.0,West,19.6,28.8,N/A,,Clear,280,2013-11-18 20:02:00
3:22 PM,60.8,26.6,27,29.82,10.0,West,21.9,29.9,N/A,,Scattered Clouds,280,2013-11-18 20:22:00
3:42 PM,59.0,26.6,29,29.83,10.0,West,17.3,35.7,N/A,,Clear,280,2013-11-18 20:42:00
4:02 PM,59.0,28.4,31,29.84,10.0,West,16.1,23.0,N/A,,Scattered Clouds,270,2013-11-18 21:02:00
4:22 PM,59.0,28.4,31,29.85,10.0,West,12.7,21.9,N/A,,Scattered Clouds,280,2013-11-18 21:22:00
4:42 PM,55.4,26.6,33,29.87,10.0,West,16.1,31.1,N/A,,Scattered Clouds,280,2013-11-18 21:42:00
5:02 PM,55.4,26.6,33,29.88,10.0,West,13.8,29.9,N/A,,Scattered Clouds,270,2013-11-18 22:02:00
5:22 PM,55.4,26.6,33,29.89,10.0,West,9.2,21.9,N/A,,Scattered Clouds,270,2013-11-18 22:22:00
5:42 PM,53.6,26.6,35,29.90,10.0,West,15.0,24.2,N/A,,Clear,270,2013-11-18 22:42:00
6:02 PM,53.6,26.6,35,29.90,10.0,West,12.7,34.5,N/A,,Clear,270,2013-11-18 23:02:00
6:22 PM,53.6,26.6,35,29.92,10.0,WNW,19.6,33.4,N/A,,Clear,290,2013-11-18 23:22:00
6:42 PM,51.8,26.6,38,29.93,10.0,WNW,10.4,31.1,N/A,,Scattered Clouds,300,2013-11-18 23:42:00
7:02 PM,51.8,26.6,38,29.94,10.0,West,16.1,33.4,N/A,,Clear,270,2013-11-19 00:02:00
7:22 PM,51.8,26.6,38,29.95,10.0,West,18.4,35.7,N/A,,Clear,280,2013-11-19 00:22:00
7:43 PM,50.0,26.6,40,29.96,10.0,West,12.7,34.5,N/A,,Clear,270,2013-11-19 00:43:00
8:03 PM,50.0,26.6,40,29.97,10.0,West,11.5,21.9,N/A,,Clear,260,2013-11-19 01:03:00
8:23 PM,50.0,26.6,40,29.98,10.0,WNW,6.9,28.8,N/A,,Clear,300,2013-11-19 01:23:00
8:43 PM,50.0,26.6,40,29.99,10.0,WNW,20.7,36.8,N/A,,Clear,290,2013-11-19 01:43:00
9:03 PM,48.2,26.6,43,30.00,10.0,West,12.7,31.1,N/A,,Scattered Clouds,270,2013-11-19 02:03:00
9:23 PM,48.2,26.6,43,30.00,10.0,West,16.1,24.2,N/A,,Mostly Cloudy,260,2013-11-19 02:23:00
9:43 PM,48.2,26.6,43,30.01,10.0,NW,13.8,26.5,N/A,,Overcast,320,2013-11-19 02:43:00
10:03 PM,48.2,23.0,37,30.01,10.0,NW,11.5,27.6,N/A,,Overcast,320,2013-11-19 03:03:00
10:23 PM,48.2,24.8,40,30.02,10.0,WNW,13.8,21.9,N/A,,Overcast,290,2013-11-19 03:23:00
10:43 PM,46.4,23.0,40,30.02,10.0,WNW,10.4,19.6,N/A,,Overcast,300,2013-11-19 03:43:00
11:03 PM,46.4,23.0,40,30.02,10.0,SW,4.6,18.4,N/A,,Overcast,230,2013-11-19 04:03:00
11:23 PM,46.4,26.6,46,30.02,10.0,West,15.0,24.2,N/A,,Overcast,260,2013-11-19 04:23:00
11:43 PM,46.4,26.6,46,30.03,10.0,NNW,12.7,28.8,N/A,,Overcast,330,2013-11-19 04:43:00